Regional Weather Roundup
Issued by NWS

Home | Current Version | Previous Version | Graphics & Text | Print | Product List | Glossary Off
Versions: 1 2 3 4 5 6 7 8 9 10 11 12 13 14 15 16 17 18 19 20 21 22 23 24 25 26 27 28 29 30 31 32 33 34 35 36 37 38 39 40 41 42 43 44 45 46 47 48 49 50

000
ASUS43 KLSX 271357
RWRMO

WEATHER SUMMARY FOR MISSOURI
NATIONAL WEATHER SERVICE SPRINGFIELD MO
900 AM CDT TUE SEP 27 2016

NOTE: "FAIR" INDICATES FEW OR NO CLOUDS BELOW 12,000 FEET WITH NO
       SIGNIFICANT WEATHER AND/OR OBSTRUCTIONS TO VISIBILITY.
       CURRENT SKY AND/OR WEATHER CONDITIONS ARE NOT AVAILABLE FOR
       CHILLICOTHE AND FARMINGTON.

MOZ001>031-035>038-043-044-053-054-271500-
...NORTHERN AND WESTERN MISSOURI...

CITY           SKY/WX    TMP DP  RH WIND       PRES   REMARKS
KANSAS CTY INT SUNNY     59  47  64 W8        30.04F
LEE`S SUMMIT   SUNNY     60  48  64 SW8       30.05F
ST JOSEPH      SUNNY     57  50  77 S3        30.04S
CHILLICOTHE      N/A     59  50  72 CALM      30.04S

$$
MOZ066>068-077>081-088>096-101>105-271500-
...SOUTHWEST MISSOURI...

CITY           SKY/WX    TMP DP  RH WIND       PRES   REMARKS
SPRINGFIELD    SUNNY     61  42  49 W7        30.11S
JOPLIN         SUNNY     59  50  72 SW7       30.13S
BRANSON        SUNNY     57  46  67 W3        30.14R

$$
MOZ032>034-039>042-045>050-055>058-069>072-271500-
...CENTRAL MISSOURI...

CITY           SKY/WX    TMP DP  RH WIND       PRES   REMARKS
COLUMBIA       NOT AVBL
JEFFERSON CITY SUNNY     61  47  59 W6        30.06S
ROLLA          SUNNY     57  46  66 SW9       30.07S
SEDALIA        SUNNY     62  46  55 W7        30.07S

$$
MOZ051-052-059>065-271500-
...EAST CENTRAL MISSOURI...

CITY           SKY/WX    TMP DP  RH WIND       PRES   REMARKS
ST LOUIS INTL  SUNNY     65  45  48 W14       30.02S

$$
MOZ072>076-082>087-097>100-106>115-271500-
...SOUTH CENTRAL AND SOUTHEAST MISSOURI...

CITY           SKY/WX    TMP DP  RH WIND       PRES   REMARKS
CAPE GIRARDEAU SUNNY     55  50  83 CALM      30.06S
POPLAR BLUFF   SUNNY     58  51  78 NW3       30.07S
WEST PLAINS    SUNNY     60  46  59 W6        30.12R

$$


USA.gov is the U.S. government's official web portal to all federal, state and local government web resources and services.